User: anonymous   Login
Location: Unspecified
(0.0000°N, 0.0000°E)
Time: 11:16:02
(UTC+00:00)
Language:

Kiku-6 - Orbit

View from above orbital plane
View from above orbital plane
View from above satellite
View from above satellite

Ground track
Ground track

The orbit data is extracted from the following two-line orbital elements,

1 23230U 94056A   18019.34441804 -.00000065 +00000-0 +00000-0 0  9993
2 23230 012.9804 118.4056 5017542 081.8483 328.6144 01.67094875142919
Epoch (UTC): 19 January 2018 08:15:57
Eccentricity: 0.5017542
inclination: 12.9804°
perigee height: 8568 km
apogee height: 38671 km
right ascension of ascending node: 118.4056°
argument of perigee: 81.8483°
revolutions per day: 1.67094875
mean anomaly at epoch: 328.6144°
orbit number at epoch: 14291

The dashed part of the orbit path shows where the satellite is in the earth's shadow,  

DLR